GEFSSE_con_cape1000_024.txt.gz
Probability
32 29 100 97 100 100 100 97 84 71 65 65 61 77 84 94 100 100 100 100 100 100 100 100 100 97 100 100 100 97 100 100 100 100 100 100 100 100 97 97 94 77 90
42 35 100 100 100 100 100 100 94 81 65 71 74 87 90 94 97 97 97 94 97 97 87 87 94 94 100 100 100 100 100 100 100 100 100 100 97 87 84 97 100 77 87
42 35 84 100 100 100 100 100 94 87 61 84 87 90 94 94 90 87 90 90 94 90 81 87 94 97 100 100 100 100 100 100 100 100 100 81 61 68 84 97 94 87 81
39 19 42 100 100 100 100 100 94 90 90 90 94 94 100 97 90 87 90 87 90 87 90 87 94 97 100 100 100 100 100 100 100 100 100 84 10 81 77 68 65 58 55
32 65 100 100 100 100 100 100 100 97 94 94 97 100 100 94 94 87 68 68 81 84 81 94 97 100 100 100 100 100 100 100 100 100 100 100 58 97 100 77 48 13 16
81 74 97 100 100 100 100 100 100 100 100 100 100 100 100 94 87 71 55 52 52 71 81 90 87 97 100 100 100 97 100 100 100 87 84 81 77 100 100 90 65 29 19
87 81 84 100 100 100 100 100 100 100 100 100 100 100 97 94 81 71 52 42 35 42 48 68 84 87 90 97 100 100 100 100 100 74 61 74 94 100 100 100 97 87 81
94 77 90 100 100 100 100 100 100 100 100 100 100 97 97 94 81 58 35 26 19 26 26 32 39 65 71 84 87 100 100 100 81 68 84 81 100 100 100 100 100 97 97
97 87 84 87 100 100 100 100 100 100 100 100 100 94 90 87 68 48 48 35 19 26 29 29 26 42 58 87 97 97 97 97 94 77 81 94 100 100 100 100 97 97 97
100 90 90 81 87 71 87 100 100 100 97 97 97 94 87 84 87 90 90 77 55 42 42 45 61 74 94 100 100 100 100 100 32 3 16 90 100 100 100 100 97 97 97
100 100 94 90 90 84 68 87 97 97 97 97 97 94 94 94 61 100 84 100 74 48 48 61 77 90 97 100 100 100 100 26 0 0 6 81 100 100 100 100 100 97 97
74 97 100 100 100 94 94 97 100 94 100 87 100 97 94 90 94 58 87 100 74 58 48 77 94 100 97 26 94 100 48 6 0 0 29 97 100 100 100 100 100 100 97
26 71 94 100 100 97 100 100 97 87 100 77 100 100 94 90 68 26 35 77 65 35 32 87 84 48 42 48 84 68 35 32 29 16 48 100 100 100 100 100 100 100 100
35 39 35 100 100 94 94 87 97 87 94 29 97 84 74 77 77 71 90 77 84 90 97 97 100 100 97 94 94 84 68 81 81 74 87 97 97 100 100 100 100 100 100
74 77 97 100 100 100 100 100 61 71 55 68 97 87 90 94 87 84 97 100 94 97 100 100 100 100 100 94 94 74 71 68 81 84 94 100 100 100 100 97 94 94 94
100 94 100 100 100 100 100 100 97 65 97 58 87 81 87 90 100 100 97 100 100 100 100 100 100 100 100 97 94 90 81 74 90 94 97 97 100 100 100 100 90 84 84
100 100 100 100 100 100 100 100 100 97 61 68 94 94 97 90 100 100 100 100 100 100 100 97 97 100 100 100 100 87 90 97 94 100 94 94 97 100 100 100 94 84 74
100 100 100 100 100 100 100 100 100 100 100 97 97 100 100 94 100 100 100 100 100 100 100 100 100 97 100 100 100 94 100 100 100 97 94 100 97 90 97 97 90 84 68
100 100 100 100 100 100 100 100 100 100 100 100 100 100 100 97 100 100 100 100 100 100 97 90 100 100 97 94 94 100 100 97 100 97 100 90 94 87 61 71 90 81 68
100 100 100 100 100 100 100 100 100 100 100 100 100 100 100 100 94 100 100 97 94 94 87 87 87 94 87 90 26 52 87 100 100 100 90 77 97 71 45 16 65 42 55
100 100 100 100 100 100 100 100 100 100 97 94 94 97 94 90 87 94 87 94 97 90 81 74 74 65 71 84 81 90 68 77 100 94 81 71 48 52 23 10 26 32 23
100 100 100 100 100 100 100 100 100 100 100 94 87 94 94 87 87 58 90 87 87 81 74 65 68 65 48 58 74 65 52 55 94 45 94 71 23 13 10 3 6 35 39
100 100 100 100 100 100 100 100 100 100 97 97 97 94 90 84 81 71 61 61 74 74 68 61 68 58 39 52 55 45 39 35 35 84 94 61 48 13 10 13 10 13 19
100 100 100 100 100 100 100 100 100 100 100 100 100 100 97 84 77 65 58 55 45 48 61 52 35 52 45 16 42 48 35 42 19 13 61 90 90 58 26 10 0 13 10
97 100 100 100 100 100 100 100 100 100 100 100 100 100 97 90 81 48 48 39 42 48 35 32 19 23 16 10 26 45 52 55 45 35 10 29 52 55 58 48 19 10 13
97 100 100 100 100 97 97 97 100 100 100 97 97 100 100 97 87 68 48 48 55 48 32 32 19 13 16 23 32 39 48 45 65 48 32 16 10 6 48 26 13 10 13

GEFSSE_con_cape1000_030.txt.gz
Probability
3 87 100 100 100 100 97 97 84 87 94 100 100 100 100 100 100 100 100 97 97 97 97 100 100 100 100 100 100 100 100 100 100 100 100 100 100 100 97 97 87 90 94
6 90 100 100 100 100 94 87 87 90 97 97 97 97 100 100 100 100 97 97 97 90 97 100 100 100 100 100 100 100 100 100 100 100 94 97 100 100 100 97 84 81 94
23 90 100 100 100 97 90 87 87 94 97 97 97 97 97 100 100 100 100 97 97 87 84 97 100 100 100 100 100 100 97 97 97 94 68 16 81 100 100 97 94 87 65
19 55 97 100 100 100 97 90 90 90 97 97 100 100 100 97 100 100 97 100 97 87 71 77 84 97 100 100 100 100 100 97 97 94 68 55 16 71 100 100 94 77 71
0 3 94 100 100 100 97 94 94 97 97 97 100 100 97 97 97 100 94 94 90 77 65 68 77 94 100 87 90 97 100 100 100 97 84 71 10 65 100 100 94 81 74
0 19 100 100 100 100 100 97 94 97 97 97 100 100 97 97 97 97 94 97 94 90 77 81 84 90 94 94 90 94 97 94 90 81 58 42 10 84 97 100 90 84 77
3 45 100 100 100 100 100 97 97 97 97 100 100 100 97 100 97 97 90 94 94 77 84 84 77 77 87 94 94 97 90 90 74 55 26 0 3 87 100 100 100 97 97
10 55 100 100 100 100 100 97 100 97 100 100 100 100 100 100 100 100 94 87 74 68 74 71 65 65 74 84 87 97 100 94 84 55 16 6 19 90 100 100 100 100 100
10 58 87 100 100 100 100 100 100 100 100 100 100 100 100 100 97 97 97 94 61 55 55 45 48 68 81 87 90 97 100 97 87 52 29 0 39 100 100 100 100 100 100
10 45 52 58 84 100 100 100 100 100 100 100 100 100 100 100 97 97 100 87 77 74 71 68 74 81 90 100 100 100 100 90 58 3 0 0 29 100 100 100 100 100 97
6 16 23 23 16 61 87 100 100 100 100 100 100 100 100 68 32 87 97 90 97 90 84 81 81 87 94 97 100 100 100 61 3 0 0 0 45 97 100 100 100 97 97
6 6 0 0 3 10 42 77 61 94 87 77 58 87 65 0 0 3 26 100 100 100 97 87 87 90 77 39 26 77 45 23 0 0 0 3 68 97 100 100 100 100 100
6 3 0 0 0 0 0 16 19 16 10 10 0 0 0 0 0 0 0 23 90 97 68 52 58 39 19 10 0 0 0 0 0 0 0 29 81 100 100 100 100 100 100
39 26 13 6 0 0 0 3 0 0 3 6 0 0 0 0 0 0 0 0 6 10 10 3 0 0 0 0 0 0 0 0 0 0 0 52 87 97 100 100 100 100 100
58 55 48 39 10 10 6 3 6 3 13 3 0 6 0 0 0 0 0 0 0 0 0 0 0 0 0 0 0 0 0 0 0 0 0 55 100 100 100 100 100 100 100
48 71 71 58 35 26 29 13 10 32 35 10 0 6 6 3 0 0 0 0 0 0 0 0 0 0 0 0 0 0 0 0 0 0 0 0 90 100 100 100 100 100 97
16 45 61 52 32 42 39 23 19 19 32 13 10 6 6 3 0 0 0 0 0 0 0 0 0 0 0 0 0 0 0 0 0 0 0 0 3 90 100 100 100 100 100
6 42 65 77 42 39 35 29 29 23 19 13 10 6 3 3 0 0 0 0 0 0 0 0 0 0 0 0 0 0 0 0 0 0 0 0 0 0 61 100 100 100 100
19 52 55 68 61 58 55 39 45 55 35 23 13 10 6 13 13 3 0 3 6 3 0 0 0 0 0 0 0 0 0 0 0 0 0 0 0 0 0 10 90 94 97
35 52 68 74 94 84 87 87 74 81 71 35 26 10 10 10 26 13 10 6 10 3 0 0 0 0 0 0 0 0 0 0 0 0 0 0 0 0 3 3 3 19 94
65 71 84 84 100 100 100 100 94 87 74 45 26 23 29 32 42 26 29 16 6 3 0 0 0 0 0 0 0 0 0 0 0 0 0 0 0 0 0 0 0 0 3
74 71 74 87 97 100 100 100 97 90 77 45 32 26 23 32 45 35 13 13 3 3 3 0 0 0 0 0 0 0 0 0 0 0 0 0 0 0 0 0 0 0 0
65 71 71 77 87 97 100 100 94 84 84 61 39 26 23 45 45 29 19 6 10 0 0 0 0 0 0 0 0 0 0 0 0 0 0 0 0 0 0 0 0 0 0
55 71 74 77 81 87 94 90 90 84 81 68 45 39 39 39 39 29 16 13 3 0 0 0 0 0 0 0 0 0 0 0 0 0 0 0 0 0 0 0 0 0 0
58 65 65 68 71 74 84 84 90 84 84 71 61 61 48 42 35 32 19 10 0 0 0 0 0 0 0 0 0 0 0 0 0 0 0 0 0 0 0 0 0 0 0
52 55 55 61 68 71 81 81 90 94 81 71 77 68 42 29 10 10 6 3 0 0 0 0 0 0 0 0 0 0 0 0 0 0 0 0 0 0 0 0 0 0 0

GEFSSE_con_cape1000_036.txt.gz
Probability
0 45 94 71 68 74 94 100 100 100 100 100 100 100 100 100 100 100 97 97 90 84 87 100 100 100 100 97 97 97 97 100 100 97 97 97 97 97 97 94 87 87 90
0 74 94 81 65 77 87 100 100 100 100 100 100 100 100 100 100 100 100 97 94 87 90 100 97 100 100 97 97 94 90 87 94 97 94 94 94 97 97 84 84 84 90
0 77 84 87 77 74 81 90 100 100 100 100 100 100 100 100 100 97 97 97 97 87 87 97 97 97 97 94 94 94 90 81 71 65 74 61 90 100 90 71 81 81 81
10 74 74 94 90 77 84 87 97 100 100 100 100 100 100 100 100 97 97 100 97 68 71 84 90 100 100 97 97 94 94 81 58 52 29 16 35 77 94 87 77 77 71
23 55 81 100 90 87 87 87 97 100 100 100 100 100 100 100 100 97 100 100 84 68 52 61 77 94 97 87 90 94 97 87 74 71 61 58 35 48 84 90 87 81 90
23 45 90 100 100 97 97 94 97 100 100 100 100 100 100 100 100 94 94 90 77 74 52 58 71 90 90 90 84 81 84 74 71 71 71 55 39 45 97 100 97 94 97
6 32 94 100 100 97 94 97 97 97 100 100 100 100 100 100 100 90 87 84 81 77 74 71 74 74 87 87 87 90 84 84 71 61 55 39 26 23 100 100 100 100 100
6 39 94 100 100 100 97 97 100 100 100 100 100 100 97 97 97 94 84 87 84 71 68 68 74 74 81 90 94 90 90 74 68 61 55 48 29 61 100 100 100 100 100
13 52 84 90 94 100 97 100 100 100 100 100 100 100 100 97 97 97 94 90 81 74 68 68 65 68 87 94 94 94 100 94 74 65 48 29 13 61 90 100 100 100 100
13 19 48 77 84 87 87 97 100 100 100 100 100 100 100 100 94 94 100 97 87 84 84 77 74 84 90 100 100 100 100 100 81 48 29 6 19 58 84 90 100 100 100
19 23 13 19 29 61 81 94 100 100 100 100 100 100 100 97 87 90 97 100 90 90 87 87 97 100 100 100 100 100 100 97 61 29 10 10 42 81 87 97 100 100 100
6 23 10 13 3 23 71 84 90 97 97 100 97 100 100 45 23 55 39 94 100 100 97 100 100 100 100 81 58 94 42 32 13 6 3 35 87 90 94 100 100 100 100
0 10 16 16 10 16 23 10 26 29 32 35 52 45 35 13 0 3 0 0 13 58 90 94 84 71 55 39 23 13 3 3 3 0 0 19 100 97 97 97 100 100 100
3 3 6 13 10 10 6 3 3 10 10 19 10 13 6 3 0 0 0 0 0 0 0 19 26 19 13 13 13 3 0 0 0 0 0 10 90 97 97 97 100 100 100
3 3 6 6 6 10 3 3 10 6 13 13 3 3 3 3 3 0 0 0 0 0 0 0 3 3 0 0 0 0 0 0 0 0 0 3 84 100 97 100 100 100 100
3 3 6 13 10 6 3 0 6 6 3 0 0 0 0 0 0 0 0 0 0 0 0 0 0 0 0 0 0 0 0 0 0 0 0 0 10 87 100 100 100 100 100
16 3 3 10 10 6 6 0 3 6 3 3 3 3 3 0 0 0 0 0 0 0 0 0 0 0 0 0 0 0 0 0 0 0 0 0 0 0 74 97 100 100 100
52 10 10 10 6 6 6 0 10 10 10 6 10 3 3 3 3 3 0 0 0 0 0 0 0 0 0 0 0 0 0 0 0 0 0 0 0 0 0 68 100 100 100
58 45 39 23 23 10 6 6 10 13 10 10 10 3 3 6 6 3 3 0 0 0 0 0 3 0 0 0 0 0 0 0 0 0 0 0 0 0 0 0 58 87 94
52 52 61 52 58 39 29 26 16 23 19 10 13 23 19 10 10 0 0 0 0 3 3 3 3 0 0 0 0 0 0 0 0 0 0 0 0 0 0 0 0 10 39
35 58 68 61 65 45 35 29 26 26 13 6 10 13 10 10 13 0 0 0 3 6 6 3 3 3 0 0 0 0 0 0 0 0 0 0 0 0 0 0 0 0 0
32 42 55 58 55 42 45 42 23 29 10 3 10 16 16 23 29 19 6 6 6 6 6 3 3 3 0 0 0 0 0 0 0 0 0 0 0 0 0 0 0 0 0
23 29 39 45 45 39 45 45 29 19 16 16 13 16 16 16 19 16 10 6 6 6 10 3 3 3 3 0 0 0 0 0 0 0 0 0 0 0 0 0 0 0 0
19 26 23 26 35 29 48 58 52 48 39 29 23 16 16 16 13 19 10 10 10 10 3 3 3 0 3 3 0 0 0 0 0 0 0 0 0 0 0 0 0 0 0
23 32 32 19 19 35 48 55 42 35 29 23 13 13 10 6 6 13 19 10 6 6 0 0 0 0 3 0 0 0 0 0 0 0 0 0 0 0 0 0 0 0 0
13 16 19 23 29 29 35 32 39 32 23 19 19 16 10 0 0 3 3 3 0 0 0 3 0 0 0 0 0 0 0 0 0 0 0 0 0 0 0 0 0 0 0

GEFSSE_con_cape1000_042.txt.gz
Probability
0 0 16 87 97 100 100 100 100 100 97 90 90 84 87 94 94 94 90 81 81 87 94 97 100 94 97 94 97 90 90 94 94 94 90 87 90 84 81 68 65 19 74
0 6 35 97 100 100 100 100 100 100 100 100 94 94 94 94 97 90 87 77 77 81 84 94 90 90 87 81 81 77 84 81 84 81 81 84 87 68 65 39 68 77 74
0 10 26 94 100 100 100 100 100 100 100 100 100 100 100 100 100 87 84 77 74 68 81 81 84 74 74 65 58 58 58 58 52 61 68 19 52 81 52 42 45 58 55
0 10 10 84 100 100 100 100 100 100 100 100 100 100 100 100 100 94 84 81 68 58 61 61 71 61 61 65 61 42 35 26 16 23 16 3 0 71 71 48 35 45 45
0 10 39 90 100 100 100 100 100 100 100 100 100 100 100 100 97 90 87 74 61 45 48 45 55 58 65 61 61 52 35 26 26 3 10 10 23 61 65 74 61 52 61
0 6 48 94 94 100 100 100 100 100 100 100 100 100 100 100 100 94 84 74 65 42 29 29 32 48 58 65 61 55 45 29 19 0 3 19 39 77 68 94 87 90 90
0 6 32 97 94 97 100 100 100 100 100 100 100 100 100 100 100 90 87 74 65 52 32 39 48 48 65 71 65 65 58 48 32 6 0 10 16 74 71 97 100 100 100
0 3 45 87 97 94 97 100 100 100 100 100 100 100 100 100 100 84 71 68 52 45 48 45 52 58 58 61 71 74 71 61 19 0 6 3 23 45 71 94 100 100 100
0 3 68 45 87 90 97 97 97 100 100 100 100 100 100 100 100 94 87 71 52 48 52 42 35 42 48 58 77 84 84 74 13 13 3 6 61 65 81 97 100 100 100
6 10 55 58 39 35 48 94 97 100 100 100 100 100 97 94 84 81 94 90 71 48 52 35 35 42 48 77 81 90 90 74 19 10 26 32 84 74 77 94 94 100 100
42 61 61 58 71 26 13 45 90 100 100 100 100 100 100 87 48 90 68 90 65 58 68 74 74 74 84 94 100 97 84 45 23 16 32 42 77 84 90 100 100 100 100
90 97 97 77 81 45 16 52 74 74 100 97 100 100 100 97 84 26 45 81 81 71 71 87 87 94 84 77 84 94 65 58 48 48 58 87 97 100 100 100 100 97 100
87 97 97 94 100 74 71 65 84 90 100 100 100 100 100 100 100 45 52 87 94 94 84 87 97 81 77 71 68 77 77 71 68 61 81 94 97 100 100 100 100 100 100
48 94 94 100 100 100 84 87 94 94 100 100 100 100 100 100 100 65 87 45 48 84 87 71 94 74 81 77 77 71 74 87 84 81 100 94 94 100 100 100 100 100 100
61 81 97 100 100 100 100 100 94 100 100 100 100 100 100 100 100 58 94 94 65 61 84 100 90 90 97 84 84 61 48 68 77 81 87 97 97 97 100 100 100 100 100
71 77 97 100 100 100 100 100 100 100 100 100 100 100 100 100 100 100 100 100 94 77 87 97 87 100 94 81 77 74 74 52 58 61 58 71 100 100 97 94 100 100 100
90 87 97 100 100 100 100 100 100 100 94 100 100 100 100 100 100 100 94 100 97 90 97 100 100 97 100 90 94 77 81 65 55 55 45 58 55 74 97 94 94 97 100
97 100 100 100 100 100 100 100 100 97 87 100 100 100 100 100 100 100 100 97 100 100 100 100 100 90 94 94 97 94 81 87 68 55 35 42 52 29 68 90 94 94 87
100 100 100 100 100 100 100 100 100 100 100 100 100 97 97 97 97 100 100 100 100 100 100 90 84 94 97 97 87 97 65 58 58 35 19 19 42 55 35 42 68 81 84
100 100 100 100 100 100 100 100 100 100 100 100 97 97 97 97 97 97 100 100 100 100 97 94 94 97 97 100 74 48 52 45 32 26 23 10 10 10 6 3 39 48 61
100 100 100 100 100 100 100 100 100 97 97 94 94 94 94 94 94 97 94 94 97 100 100 90 94 90 94 90 61 52 42 26 23 26 13 6 3 0 3 13 29 35 52
100 100 100 100 100 97 97 97 100 97 94 90 90 90 87 90 90 87 94 94 94 94 87 90 90 84 77 58 58 45 23 16 26 3 6 3 0 0 0 0 6 29 32
100 100 100 100 97 97 97 97 94 94 87 90 87 90 87 84 81 84 84 87 84 81 77 87 77 65 65 71 58 45 19 10 19 3 3 3 6 0 0 0 0 0 16
87 94 100 100 100 100 100 97 97 97 90 87 90 90 84 84 74 74 71 71 74 81 71 71 65 74 68 61 58 58 48 29 16 3 0 0 0 3 3 0 0 0 0
58 68 81 94 97 100 100 100 97 94 97 87 90 90 87 71 71 68 61 61 58 55 61 45 55 71 61 61 48 55 39 58 45 26 0 3 6 3 3 0 0 0 0
29 48 52 84 97 94 87 90 90 94 90 87 84 87 84 71 61 48 48 52 52 42 48 52 55 65 68 61 55 52 42 42 26 29 3 10 13 10 3 0 3 0 0